Location: Newark
(44.4156°N, 12.1972°E)
Time: 00:16:43
(UTC+00:00)

STARLINK-1071 - Pass Details

Date: 03 February 2020
Orbit: 345 x 354 km, 53.0° (Epoch: 17 February)

Event Time Altitude Azimuth Distance (km) Brightness Sun altitude
Rises 16:51:16 0° 300° (WNW) 2,165 7.4 -5.7°
Reaches altitude 10° 16:53:19 10° 293° (WNW) 1,319 6.4 -6.0°
Maximum altitude 16:56:09 44° 219° (SW) 495 3.9 -6.5°
Drops below altitude 10° 16:58:57 10° 146° (SE) 1,311 5.4 -7.0°
Sets 17:01:00 0° 139° (SE) 2,149 6.4 -7.3°
